Weather History for Sidney-Richland, MT

Change the Weather History Date:

Monday, November 25, 2013

  Actual Average Record
Temperature  
Mean Temperature 24 °F -  
Max Temperature 30 °F 34 °F 67 °F (1960)
Min Temperature 17 °F 15 °F -18 °F (1977)
Degree Days  
Heating Degree Days 42    
Moisture  
Dew Point 18 °F    
Average Humidity 75    
Maximum Humidity 86    
Minimum Humidity 64    
Precipitation  
Precipitation 0.00 in - - ()
Sea Level Pressure  
Sea Level Pressure 30.28 in    
Wind  
Wind Speed 11 mph (WNW)    
Max Wind Speed 17 mph    
Max Gust Speed 17 mph    
Visibility 10 miles    
Events      
Averages and records for this station are not official NWS values.
T = Trace of Precipitation, MM = Missing Value Source: NWS Daily Summary

Daily Weather History Graph

Daily Weather History Graph

Search for Another Location

Airport:

Trip Planner

Search our weather history database for the weather conditions in past years. The results will help you decide how hot, cold, wet, or windy it might be!

Date:

Astronomy

Nov. 25, 2013 Rise Set
Actual Time 7:17 AM MST 4:10 PM MST
Civil Twilight 6:42 AM MST 4:45 PM MST
Nautical Twilight 6:03 AM MST 5:23 PM MST
Astronomical Twilight 5:27 AM MST 6:00 PM MST
Moon 11:56 PM MST (11/25) 12:17 PM MST (11/25)
Length of Visible Light 10h 02m
Length of Day
8h 53m
Waning Gibbous, 50% of the Moon is Illuminated
Nov 25
Waning Gibbous
Nov 25
Last Quarter
Dec 2
New
Dec 9
First Quarter
Dec 17
Full

Hourly Weather History & Observations

Time (MST) Temp. Windchill Dew Point Humidity Pressure Visibility Wind Dir Wind Speed Gust Speed Precip Events Conditions
12:15 AM 28.4 °F 19.1 °F 19.4 °F 69% 30.13 in 10.0 mi NW 10.4 mph - N/A   Clear
12:55 AM 26.6 °F 15.7 °F 19.4 °F 74% 30.13 in 10.0 mi West 12.7 mph - N/A   Clear
1:15 AM 24.8 °F 14.0 °F 19.4 °F 80% 30.13 in 10.0 mi WNW 11.5 mph - N/A   Clear
1:35 AM 24.8 °F 16.1 °F 19.4 °F 80% 30.14 in 10.0 mi WNW 8.1 mph - N/A   Clear
1:55 AM 24.8 °F 15.3 °F 17.6 °F 74% 30.15 in 10.0 mi WNW 9.2 mph - N/A   Clear
2:15 AM 21.2 °F 8.9 °F 15.8 °F 80% 30.15 in 10.0 mi WNW 12.7 mph - N/A   Clear
2:35 AM 24.8 °F 14.6 °F 19.4 °F 80% 30.16 in 10.0 mi WNW 10.4 mph - N/A   Clear
2:55 AM 23.0 °F 11.1 °F 17.6 °F 80% 30.16 in 10.0 mi WNW 12.7 mph - N/A   Clear
3:15 AM 24.8 °F 12.9 °F 17.6 °F 74% 30.17 in 10.0 mi WNW 13.8 mph - N/A   Clear
3:56 AM 24.8 °F 13.4 °F 17.6 °F 74% 30.18 in 10.0 mi WNW 12.7 mph - N/A   Clear
4:15 AM 24.8 °F 12.9 °F 17.6 °F 74% 30.18 in 10.0 mi WNW 13.8 mph - N/A   Clear
4:35 AM 24.8 °F 12.4 °F 17.6 °F 74% 30.19 in 10.0 mi WNW 15.0 mph - N/A   Clear
4:55 AM 23.0 °F 10.6 °F 17.6 °F 80% 30.19 in 10.0 mi WNW 13.8 mph - N/A   Clear
5:15 AM 23.0 °F 10.1 °F 17.6 °F 80% 30.20 in 10.0 mi WNW 15.0 mph - N/A   Clear
5:35 AM 23.0 °F 9.6 °F 15.8 °F 74% 30.20 in 10.0 mi WNW 16.1 mph - N/A   Clear
5:55 AM 23.0 °F 10.1 °F 15.8 °F 74% 30.20 in 10.0 mi WNW 15.0 mph - N/A   Clear
6:15 AM 21.2 °F 8.9 °F 15.8 °F 80% 30.21 in 10.0 mi WNW 12.7 mph - N/A   Clear
6:35 AM 21.2 °F 8.9 °F 15.8 °F 80% 30.21 in 10.0 mi WNW 12.7 mph - N/A   Clear
6:55 AM 21.2 °F 8.9 °F 15.8 °F 80% 30.22 in 10.0 mi WNW 12.7 mph - N/A   Clear
7:15 AM 23.0 °F 10.6 °F 15.8 °F 74% 30.22 in 10.0 mi WNW 13.8 mph - N/A   Clear
7:35 AM 24.8 °F 11.9 °F 17.6 °F 74% 30.23 in 10.0 mi WNW 16.1 mph - N/A   Clear
8:15 AM 24.8 °F 11.5 °F 17.6 °F 74% 30.23 in 10.0 mi WNW 17.3 mph - N/A   Clear
8:35 AM 24.8 °F 12.9 °F 17.6 °F 74% 30.25 in 10.0 mi WNW 13.8 mph - N/A   Clear
8:55 AM 24.8 °F 12.9 °F 17.6 °F 74% 30.26 in 10.0 mi WNW 13.8 mph - N/A   Clear
9:15 AM 26.6 °F 16.2 °F 19.4 °F 74% 30.27 in 10.0 mi WNW 11.5 mph 17.3 mph N/A   Clear
9:35 AM 26.6 °F 16.2 °F 19.4 °F 74% 30.27 in 10.0 mi WNW 11.5 mph - N/A   Clear
9:55 AM 26.6 °F 17.5 °F 19.4 °F 74% 30.28 in 10.0 mi WNW 9.2 mph - N/A   Clear
10:15 AM 26.6 °F 15.7 °F 19.4 °F 74% 30.28 in 10.0 mi WNW 12.7 mph - N/A   Clear
10:36 AM 28.4 °F 18.5 °F 19.4 °F 69% 30.29 in 10.0 mi West 11.5 mph - N/A   Clear
10:55 AM 28.4 °F 17.5 °F 19.4 °F 69% 30.29 in 10.0 mi WNW 13.8 mph - N/A   Clear
11:15 AM 28.4 °F 17.5 °F 19.4 °F 69% 30.29 in 10.0 mi WNW 13.8 mph - N/A   Clear
11:35 AM 28.4 °F 19.7 °F 19.4 °F 69% 30.29 in 10.0 mi WNW 9.2 mph - N/A   Clear
11:55 AM 30.2 °F 20.8 °F 19.4 °F 64% 30.30 in 10.0 mi WNW 11.5 mph - N/A   Clear
12:15 PM 28.4 °F 20.4 °F 19.4 °F 69% 30.30 in 10.0 mi WNW 8.1 mph - N/A   Clear
12:35 PM 30.2 °F 21.3 °F 19.4 °F 64% 30.30 in 10.0 mi WNW 10.4 mph - N/A   Clear
12:55 PM 30.2 °F 21.9 °F 21.2 °F 69% 30.30 in 10.0 mi WNW 9.2 mph 16.1 mph N/A   Clear
1:15 PM 30.2 °F 19.8 °F 21.2 °F 69% 30.29 in 10.0 mi NW 13.8 mph - N/A   Clear
1:35 PM 30.2 °F 20.8 °F 19.4 °F 64% 30.29 in 10.0 mi NW 11.5 mph - N/A   Clear
1:55 PM 30.2 °F 20.2 °F 19.4 °F 64% 30.29 in 10.0 mi WNW 12.7 mph - N/A   Clear
2:15 PM 30.2 °F 20.8 °F 19.4 °F 64% 30.29 in 10.0 mi WNW 11.5 mph - N/A   Clear
2:35 PM 30.2 °F 20.8 °F 19.4 °F 64% 30.30 in 10.0 mi WNW 11.5 mph - N/A   Clear
2:55 PM 30.2 °F 23.4 °F 19.4 °F 64% 30.30 in 10.0 mi West 6.9 mph - N/A   Clear
3:35 PM 28.4 °F 20.4 °F 19.4 °F 69% 30.31 in 10.0 mi NW 8.1 mph - N/A   Clear
4:35 PM 23.0 °F 11.7 °F 19.4 °F 86% 30.32 in 10.0 mi NW 11.5 mph - N/A   Clear
4:55 PM 21.2 °F 11.7 °F 15.8 °F 80% 30.33 in 10.0 mi WNW 8.1 mph - N/A   Clear
5:15 PM 19.4 °F - 12.2 °F 74% 30.33 in 10.0 mi Calm Calm - N/A   Clear
5:55 PM 17.6 °F 7.3 °F 12.2 °F 79% 30.34 in 10.0 mi NW 8.1 mph - N/A   Scattered Clouds
6:15 PM 19.4 °F 9.5 °F 15.8 °F 86% 30.35 in 10.0 mi NW 8.1 mph - N/A   Scattered Clouds
6:55 PM 17.6 °F 7.3 °F 10.4 °F 73% 30.35 in 10.0 mi WNW 8.1 mph - N/A   Mostly Cloudy
7:15 PM 19.4 °F 8.6 °F 15.8 °F 86% 30.36 in 10.0 mi WNW 9.2 mph - N/A   Overcast
7:55 PM 21.2 °F 10.9 °F 17.6 °F 86% 30.38 in 10.0 mi NNW 9.2 mph - N/A   Overcast
8:15 PM 23.0 °F 13.9 °F 17.6 °F 80% 30.38 in 10.0 mi WNW 8.1 mph - N/A   Overcast
8:35 PM 24.8 °F 16.1 °F 17.6 °F 74% 30.38 in 10.0 mi NW 8.1 mph - N/A   Overcast
8:55 PM 24.8 °F 16.1 °F 17.6 °F 74% 30.39 in 10.0 mi WNW 8.1 mph - N/A   Overcast
9:15 PM 24.8 °F 16.1 °F 19.4 °F 80% 30.40 in 10.0 mi NNW 8.1 mph - N/A   Overcast
9:35 PM 24.8 °F 14.6 °F 19.4 °F 80% 30.40 in 10.0 mi NNW 10.4 mph - N/A   Overcast
9:55 PM 24.8 °F 15.3 °F 19.4 °F 80% 30.41 in 10.0 mi NNW 9.2 mph - N/A   Overcast
10:15 PM 24.8 °F 15.3 °F 19.4 °F 80% 30.41 in 10.0 mi North 9.2 mph - N/A   Overcast
10:35 PM 24.8 °F 16.1 °F 17.6 °F 74% 30.42 in 10.0 mi NNW 8.1 mph - N/A   Overcast
11:15 PM 21.2 °F 11.7 °F 14.0 °F 74% 30.43 in 10.0 mi North 8.1 mph - N/A   Overcast
11:35 PM 21.2 °F 11.7 °F 14.0 °F 74% 30.44 in 10.0 mi NNW 8.1 mph - N/A   Overcast